Location: Berg
(48.4333°N, 13.9167°E)
Time: 02:17:36
(UTC+00:00)

SJ-11-01 - Pass Details

Date: 18 September 2020
Orbit: 684 x 701 km, 98.0° (Epoch: 24 October)

Event Time Altitude Azimuth Distance (km) Brightness Sun altitude
Rises 18:03:18 0° 167° (SSE) 3,067 7.4 -9.6°
Reaches altitude 10° 18:05:32 10° 168° (SSE) 2,152 6.6 -9.9°
Maximum altitude 18:10:16 81° 256° (WSW) 709 4.4 -10.7°
Drops below altitude 10° 18:15:00 10° 345° (NNW) 2,158 7.3 -11.5°
Sets 18:17:15 0° 346° (NNW) 3,076 8.1 -11.8°
